Date String (YYYY-MM-DD hh:mm:ss) UTC,Instrument flags,Ambient pressure (hPa),Sample flow (lpm),Bypass flow (lpm),Sample temperature (°C),Ambient temperature (°C),ASC tube jacket temperature (°C),LED temperature (°C),Box temperature (°C),Sample RH (%),Span deviation,Mass concentration (μg/m³),Mass concentration (μg/m³),Mass concentration (μg/m³)
DateTimeUTC,F1_M11,P_M11,Q1_M11,Q2_M11,T1_M11,T2_M11,T3_M11,T4_M11,T5_M11,U1_M11,ZSPAN_M11,X2_M11,X0_M11,X1_M11
2021-12-10 00:00:00,,0813.5,5.00,0.00,26.2,25.3,00.0,35.2,27.9,12.2,0000.0,0005.23,0020.48,0003.55
2021-12-10 00:01:00,,0813.5,4.98,0.00,26.2,25.3,00.0,35.2,27.9,12.2,0000.0,0005.20,0019.49,0003.55
2021-12-10 00:02:00,,0813.6,4.99,0.00,26.1,25.3,00.0,35.2,27.9,12.2,0000.0,0005.19,0019.27,0003.57
2021-12-10 00:03:00,,0813.5,5.00,0.00,26.1,25.2,00.0,35.2,27.9,12.2,0000.0,0005.27,0019.16,0003.58
2021-12-10 00:04:00,,0813.5,5.00,0.00,26.1,25.2,00.0,35.1,27.9,12.2,0000.0,0005.41,0018.64,0003.60
2021-12-10 00:05:00,,0813.5,5.00,0.00,26.1,25.2,00.0,35.1,27.9,12.3,0000.0,0005.48,0019.53,0003.63
2021-12-10 00:06:00,,0813.6,4.99,0.00,26.1,25.2,00.0,35.1,27.9,12.3,0000.0,0005.49,0019.96,0003.63
2021-12-10 00:07:00,,0813.5,5.00,0.00,26.1,25.2,00.0,35.1,27.9,12.3,0000.0,0005.49,0020.31,0003.64
2021-12-10 00:08:00,,0813.6,5.02,0.00,26.1,25.2,00.0,35.1,27.9,12.3,0000.0,0005.54,0020.69,0003.67
2021-12-10 00:09:00,,0813.5,5.00,0.00,26.1,25.2,00.0,35.1,27.9,12.3,0000.0,0005.54,0020.59,0003.70
2021-12-10 00:10:00,,0813.6,5.00,0.00,26.1,25.2,00.0,35.1,27.9,12.3,0000.0,0005.57,0020.24,0003.72
2021-12-10 00:11:00,,0813.6,4.99,0.00,26.1,25.3,00.0,35.1,27.9,12.3,0000.0,0005.53,0019.78,0003.72
2021-12-10 00:12:00,,0813.6,5.01,0.00,26.1,25.3,00.0,35.1,27.9,12.3,0000.0,0005.56,0020.83,0003.74
2021-12-10 00:13:00,,0813.5,4.99,0.00,26.1,25.3,00.0,35.1,27.9,12.3,0000.0,0005.54,0020.64,0003.74
2021-12-10 00:14:00,,0813.6,5.00,0.00,26.1,25.3,00.0,35.1,27.9,12.3,0000.0,0005.50,0021.50,0003.76
2021-12-10 00:15:00,,0813.5,5.00,0.00,26.1,25.3,00.0,35.1,27.9,12.2,0000.0,0005.40,0022.35,0003.75
2021-12-10 00:16:00,,0813.5,5.00,0.00,26.1,25.3,00.0,35.1,27.9,12.2,0000.0,0005.36,0021.74,0003.75
2021-12-10 00:17:00,,0813.5,5.02,0.00,26.1,25.3,00.0,35.1,27.9,12.2,0000.0,0005.52,0021.93,0003.76
2021-12-10 00:18:00,,0813.6,4.99,0.00,26.1,25.3,00.0,35.1,27.9,12.2,0000.0,0005.61,0023.05,0003.77
2021-12-10 00:19:00,,0813.5,5.01,0.00,26.1,25.3,00.0,35.1,27.9,12.2,0000.0,0005.68,0024.12,0003.77
2021-12-10 00:20:00,,0813.6,4.99,0.00,26.1,25.3,00.0,35.1,27.9,12.2,0000.0,0005.74,0026.80,0003.77
2021-12-10 00:21:00,,0813.6,5.00,0.00,26.1,25.3,00.0,35.1,27.9,12.2,0000.0,0005.78,0028.03,0003.77
2021-12-10 00:22:00,,0813.6,5.00,0.00,26.1,25.3,00.0,35.1,27.9,12.2,0000.0,0005.80,0028.95,0003.78
2021-12-10 00:23:00,,0813.6,4.99,0.00,26.1,25.3,00.0,35.1,27.9,12.2,0000.0,0005.80,0031.05,0003.78
2021-12-10 00:24:00,,0813.6,5.01,0.00,26.1,25.3,00.0,35.1,27.9,12.2,0000.0,0005.90,0030.55,0003.79
2021-12-10 00:25:00,,0813.5,5.00,0.00,26.1,25.3,00.0,35.1,27.9,12.2,0000.0,0005.98,0031.12,0003.80
2021-12-10 00:26:00,,0813.5,5.00,0.00,26.2,25.3,00.0,35.1,28.0,12.2,0000.0,0005.98,0030.23,0003.80
2021-12-10 00:27:00,,0813.5,5.00,0.00,26.1,25.3,00.0,35.1,28.0,12.2,0000.0,0006.01,0030.85,0003.81
2021-12-10 00:28:00,,0813.5,5.00,0.00,26.1,25.3,00.0,35.1,28.0,12.2,0000.0,0005.97,0030.55,0003.82
2021-12-10 00:29:00,,0813.5,5.01,0.00,26.2,25.4,00.0,35.1,27.9,12.2,0000.0,0005.94,0029.66,0003.81
2021-12-10 00:30:00,,0813.5,4.99,0.00,26.2,25.3,00.0,35.1,27.9,12.2,0000.0,0005.94,0028.75,0003.81
2021-12-10 00:31:00,,0813.5,4.99,0.00,26.2,25.3,00.0,35.1,28.0,12.2,0000.0,0005.91,0026.34,0003.79
2021-12-10 00:32:00,,0813.6,5.01,0.00,26.2,25.3,00.0,35.1,28.0,12.2,0000.0,0005.82,0023.59,0003.76
2021-12-10 00:33:00,,0813.5,4.99,0.00,26.2,25.3,00.0,35.1,28.0,12.1,0000.0,0005.78,0022.08,0003.75
2021-12-10 00:34:00,,0813.4,5.01,0.00,26.2,25.3,00.0,35.1,27.9,12.1,0000.0,0005.78,0020.05,0003.73
2021-12-10 00:35:00,,0813.4,5.00,0.00,26.2,25.3,00.0,35.1,27.9,12.1,0000.0,0005.73,0020.90,0003.71
2021-12-10 00:36:00,,0813.4,5.00,0.00,26.2,25.3,00.0,35.1,28.0,12.1,0000.0,0005.70,0020.56,0003.69
2021-12-10 00:37:00,,0813.4,5.01,0.00,26.2,25.3,00.0,35.1,28.0,12.1,0000.0,0005.71,0020.24,0003.68
2021-12-10 00:38:00,,0813.4,5.00,0.00,26.2,25.3,00.0,35.1,28.0,12.1,0000.0,0005.73,0020.36,0003.66
2021-12-10 00:39:00,,0813.4,5.00,0.00,26.2,25.3,00.0,35.1,27.9,12.1,0000.0,0005.71,0019.76,0003.64
2021-12-10 00:40:00,,0813.4,5.00,0.00,26.2,25.3,00.0,35.1,28.0,12.1,0000.0,0005.73,0019.44,0003.63
2021-12-10 00:41:00,,0813.4,4.99,0.00,26.2,25.3,00.0,35.1,27.9,12.1,0000.0,0005.78,0019.76,0003.64
2021-12-10 00:42:00,,0813.4,5.01,0.00,26.2,25.3,00.0,35.1,27.9,12.1,0000.0,0005.84,0019.60,0003.64
2021-12-10 00:43:00,,0813.4,4.99,0.00,26.2,25.3,00.0,35.1,28.0,12.1,0000.0,0005.87,0019.71,0003.65
2021-12-10 00:44:00,,0813.4,4.99,0.00,26.2,25.3,00.0,35.1,28.0,12.1,0000.0,0005.91,0020.34,0003.66
2021-12-10 00:45:00,,0813.4,5.01,0.00,26.2,25.3,00.0,35.1,27.9,12.1,0000.0,0005.92,0021.22,0003.67
2021-12-10 00:46:00,,0813.4,5.01,0.00,26.2,25.3,00.0,35.1,28.0,12.1,0000.0,0005.90,0019.74,0003.68
2021-12-10 00:47:00,,0813.4,4.99,0.00,26.2,25.3,00.0,35.1,28.0,12.2,0000.0,0005.86,0019.62,0003.70
2021-12-10 00:48:00,,0813.4,5.00,0.00,26.2,25.3,00.0,35.1,27.9,12.1,0000.0,0005.87,0019.71,0003.71
2021-12-10 00:49:00,,0813.4,5.01,0.00,26.2,25.3,00.0,35.1,27.9,12.2,0000.0,0005.82,0020.23,0003.71
2021-12-10 00:50:00,,0813.3,5.01,0.00,26.2,25.3,00.0,35.1,27.9,12.2,0000.0,0005.80,0020.64,0003.73
2021-12-10 00:51:00,,0813.5,5.01,0.00,26.2,25.3,00.0,35.1,27.9,12.2,0000.0,0005.74,0021.45,0003.74
2021-12-10 00:52:00,,0813.4,5.00,0.00,26.1,25.3,00.0,35.1,27.9,12.2,0000.0,0005.65,0021.04,0003.75
2021-12-10 00:53:00,,0813.3,4.99,0.00,26.1,25.3,00.0,35.1,27.9,12.2,0000.0,0005.59,0021.75,0003.75
2021-12-10 00:54:00,,0813.3,5.00,0.00,26.1,25.3,00.0,35.1,27.9,12.2,0000.0,0005.62,0023.23,0003.75
2021-12-10 00:55:00,,0813.3,5.01,0.00,26.2,25.3,00.0,35.1,27.9,12.2,0000.0,0005.68,0023.32,0003.76
2021-12-10 00:56:00,,0813.3,4.99,0.00,26.1,25.3,00.0,35.1,27.9,12.2,0000.0,0005.74,0022.75,0003.77
2021-12-10 00:57:00,,0813.3,5.00,0.00,26.1,25.3,00.0,35.1,27.9,12.2,0000.0,0005.75,0024.22,0003.76
2021-12-10 00:58:00,,0813.3,4.99,0.00,26.1,25.3,00.0,35.1,27.9,12.2,0000.0,0005.75,0024.02,0003.74
2021-12-10 00:59:00,,0813.3,4.99,0.00,26.1,25.3,00.0,35.1,27.9,12.2,0000.0,0005.74,0023.72,0003.74
